Location: Aressy
(43.2833°N, 0.3167°W)
Time: 01:56:58
(UTC+00:00)

Cosmos 1689 Rocket - Pass Details

Date: 28 January 2021
Orbit: 352 x 366 km, 97.5° (Epoch: 08 March)

Event Time Altitude Azimuth Distance (km) Brightness Sun altitude
Exits shadow 17:44:17 - 70° (ENE) 1,376 4.2 -7.0°
Reaches altitude 10° 17:44:36 10° 76° (ENE) 1,330 4.1 -7.0°
Maximum altitude 17:45:24 11° 92° (E) 1,279 4.1 -7.2°
Drops below altitude 10° 17:46:12 10° 109° (ESE) 1,325 4.3 -7.3°
Sets 17:49:19 0° 149° (SSE) 2,159 5.7 -7.8°
